,,,PA_Meas_PMT16A,,PR_Meas_QMR101_102,,RH_Meas_QMH101,,SR_Meas_QMS101,,TA_Meas_QMH101,,GenWind,,GenWind,
date,time,status,PA,status,PR,status,RH,status,SR,status,TA,status,DirAvg,status,SpdAvg,
2013-03-07, 00:00:04,VALID,1011.72,VALID,0,VALID,104,VALID,0,VALID,24.9237,VALID,312,VALID,0.207422,
2013-03-07, 00:01:04,VALID,1011.69,VALID,0,VALID,104,VALID,0,VALID,24.9023,VALID,310,VALID,0.189063,
2013-03-07, 00:02:04,VALID,1011.69,VALID,0,VALID,104,VALID,0,VALID,24.9023,VALID,312,VALID,0.333203,
2013-03-07, 00:03:04,VALID,1011.65,VALID,0,VALID,104,VALID,0,VALID,24.9023,VALID,312,VALID,0,
2013-03-07, 00:04:04,VALID,1011.64,VALID,0,VALID,104,VALID,0,VALID,24.9004,VALID,311,VALID,0.243359,
2013-03-07, 00:05:04,VALID,1011.61,VALID,0,VALID,104,VALID,0.112112,VALID,24.9199,VALID,312,VALID,0.327734,
2013-03-07, 00:06:04,VALID,1011.59,VALID,0,VALID,104,VALID,0.112112,VALID,24.9394,VALID,311,VALID,0.225,
2013-03-07, 00:07:04,VALID,1011.59,VALID,0,VALID,104,VALID,0,VALID,24.9589,VALID,309,VALID,0.336328,
2013-03-07, 00:08:04,VALID,1011.59,VALID,0,VALID,104,VALID,0.112112,VALID,24.9784,VALID,311,VALID,0.2,
2013-03-07, 00:09:04,VALID,1011.56,VALID,0,VALID,104,VALID,0,VALID,24.9979,VALID,311,VALID,0.169141,
2013-03-07, 00:10:04,VALID,1011.55,VALID,0,VALID,104,VALID,0.112112,VALID,25.0388,VALID,310,VALID,0.171094,
2013-03-07, 00:11:04,VALID,1011.54,VALID,0,VALID,104,VALID,0,VALID,25.0369,VALID,310,VALID,0.00117188,
2013-03-07, 00:12:04,VALID,1011.51,VALID,0,VALID,104,VALID,0.112112,VALID,25.0778,VALID,311,VALID,0.201953,
2013-03-07, 00:13:04,VALID,1011.5,VALID,0,VALID,104,VALID,0.112112,VALID,25.0759,VALID,311,VALID,0.108203,
2013-03-07, 00:14:04,VALID,1011.48,VALID,0,VALID,104,VALID,0.112112,VALID,25.1167,VALID,312,VALID,0.178125,
2013-03-07, 00:15:04,VALID,1011.45,VALID,0,VALID,104,VALID,0,VALID,25.0954,VALID,312,VALID,0.324609,
2013-03-07, 00:16:04,VALID,1011.4,VALID,0,VALID,103.985,VALID,0.112112,VALID,25.1148,VALID,311,VALID,0.433203,
2013-03-07, 00:17:04,VALID,1011.38,VALID,0,VALID,103.886,VALID,0.112112,VALID,25.1538,VALID,312,VALID,0.501172,
2013-03-07, 00:18:04,VALID,1011.37,VALID,0,VALID,103.71,VALID,0.112112,VALID,25.1733,VALID,313,VALID,0.269141,
2013-03-07, 00:19:04,VALID,1011.35,VALID,0,VALID,103.642,VALID,0,VALID,25.1752,VALID,314,VALID,0.273828,
2013-03-07, 00:20:04,VALID,1011.37,VALID,0,VALID,103.588,VALID,0,VALID,25.1947,VALID,313,VALID,0.355859,
2013-03-07, 00:21:04,VALID,1011.35,VALID,0,VALID,103.588,VALID,0,VALID,25.1752,VALID,313,VALID,0.371875,
2013-03-07, 00:22:04,VALID,1011.35,VALID,0,VALID,103.55,VALID,0,VALID,25.1752,VALID,313,VALID,0.178906,
2013-03-07, 00:23:04,VALID,1011.34,VALID,0,VALID,103.619,VALID,0,VALID,25.1752,VALID,314,VALID,0.342187,
2013-03-07, 00:24:04,VALID,1011.34,VALID,0,VALID,103.603,VALID,0,VALID,25.1557,VALID,313,VALID,0.26875,
2013-03-07, 00:25:04,VALID,1011.34,VALID,0,VALID,103.558,VALID,0,VALID,25.1557,VALID,313,VALID,0.375,
2013-03-07, 00:26:04,VALID,1011.32,VALID,0,VALID,103.497,VALID,0,VALID,25.1557,VALID,313,VALID,0.45625,
2013-03-07, 00:27:04,VALID,1011.27,VALID,0,VALID,103.466,VALID,0,VALID,25.1362,VALID,313,VALID,0.439844,
2013-03-07, 00:28:04,VALID,1011.26,VALID,0,VALID,103.542,VALID,0,VALID,25.1167,VALID,313,VALID,0.456641,
2013-03-07, 00:29:04,VALID,1011.23,VALID,0,VALID,103.611,VALID,0,VALID,25.0973,VALID,313,VALID,0.534766,
2013-03-07, 00:30:04,VALID,1011.23,VALID,0,VALID,103.603,VALID,0,VALID,25.0564,VALID,313,VALID,0.301562,
2013-03-07, 00:31:04,VALID,1011.24,VALID,0,VALID,103.657,VALID,0,VALID,25.0778,VALID,313,VALID,0.169141,
2013-03-07, 00:32:04,VALID,1011.23,VALID,0,VALID,103.703,VALID,0,VALID,25.0778,VALID,314,VALID,0.269922,
2013-03-07, 00:33:04,VALID,1011.22,VALID,0,VALID,103.771,VALID,0,VALID,25.0583,VALID,313,VALID,0.210156,
2013-03-07, 00:34:04,VALID,1011.22,VALID,0,VALID,103.726,VALID,0,VALID,25.0388,VALID,314,VALID,0.424609,
2013-03-07, 00:35:04,VALID,1011.19,VALID,0,VALID,103.764,VALID,0,VALID,25.0388,VALID,313,VALID,0.478516,
2013-03-07, 00:36:04,VALID,1011.21,VALID,0,VALID,103.848,VALID,0,VALID,25.0193,VALID,313,VALID,0.460547,
2013-03-07, 00:37:04,VALID,1011.16,VALID,0,VALID,103.878,VALID,0,VALID,24.9998,VALID,314,VALID,0.505469,
2013-03-07, 00:38:04,VALID,1011.16,VALID,0,VALID,103.977,VALID,0,VALID,24.9998,VALID,313,VALID,0.464063,
2013-03-07, 00:39:04,VALID,1011.14,VALID,0,VALID,104,VALID,0,VALID,24.9803,VALID,313,VALID,0.319922,
2013-03-07, 00:40:04,VALID,1011.09,VALID,0,VALID,104,VALID,0,VALID,24.9803,VALID,313,VALID,0.257813,
2013-03-07, 00:41:04,VALID,1011.12,VALID,0,VALID,104,VALID,0,VALID,24.9608,VALID,313,VALID,0.192188,
2013-03-07, 00:42:04,VALID,1011.1,VALID,0,VALID,104,VALID,0,VALID,24.9608,VALID,313,VALID,0.151562,
2013-03-07, 00:43:04,VALID,1011.09,VALID,0,VALID,104,VALID,0,VALID,24.9413,VALID,313,VALID,0.238281,
2013-03-07, 00:44:04,VALID,1011.02,VALID,0,VALID,104,VALID,0,VALID,24.9413,VALID,314,VALID,0.276953,
2013-03-07, 00:45:04,VALID,1011.01,VALID,0,VALID,104,VALID,0,VALID,24.9004,VALID,314,VALID,0.417188,
2013-03-07, 00:46:04,VALID,1011.02,VALID,0,VALID,104,VALID,0,VALID,24.8615,VALID,313,VALID,0.317969,
2013-03-07, 00:47:04,VALID,1010.99,VALID,0,VALID,104,VALID,0,VALID,24.8828,VALID,313,VALID,0.327734,
2013-03-07, 00:48:04,VALID,1011,VALID,0,VALID,104,VALID,0,VALID,24.8633,VALID,313,VALID,0.35625,
2013-03-07, 00:49:04,VALID,1010.95,VALID,0,VALID,104,VALID,0,VALID,24.8438,VALID,313,VALID,0.385938,
2013-03-07, 00:50:04,VALID,1010.93,VALID,0,VALID,104,VALID,0,VALID,24.8049,VALID,313,VALID,0.364453,
2013-03-07, 00:51:04,VALID,1010.94,VALID,0,VALID,104,VALID,0,VALID,24.7854,VALID,313,VALID,0.292188,
2013-03-07, 00:52:04,VALID,1010.9,VALID,0,VALID,104,VALID,0,VALID,24.7659,VALID,313,VALID,0.400781,
2013-03-07, 00:53:04,VALID,1010.88,VALID,0,VALID,104,VALID,0,VALID,24.7659,VALID,313,VALID,0.3,
2013-03-07, 00:54:04,VALID,1010.86,VALID,0,VALID,104,VALID,0,VALID,24.7269,VALID,313,VALID,0.259375,
2013-03-07, 00:55:04,VALID,1010.82,VALID,0,VALID,104,VALID,0,VALID,24.7055,VALID,314,VALID,0.312109,
2013-03-07, 00:56:04,VALID,1010.8,VALID,0,VALID,104,VALID,0,VALID,24.7074,VALID,313,VALID,0.262891,
2013-03-07, 00:57:04,VALID,1010.82,VALID,0,VALID,104,VALID,0,VALID,24.7074,VALID,313,VALID,0.00546875,
2013-03-07, 00:58:04,VALID,1010.79,VALID,0,VALID,104,VALID,0,VALID,24.6879,VALID,313,VALID,0.0160156,
2013-03-07, 00:59:04,VALID,1010.78,VALID,0,VALID,104,VALID,0,VALID,24.6879,VALID,313,VALID,0,
2013-03-07, 01:00:04,VALID,1010.77,VALID,0,VALID,104,VALID,0,VALID,24.6879,VALID,313,VALID,0,
2013-03-07, 01:01:04,VALID,1010.78,VALID,0,VALID,104,VALID,0,VALID,24.6684,VALID,313,VALID,0,
2013-03-07, 01:02:04,VALID,1010.72,VALID,0,VALID,104,VALID,0,VALID,24.6684,VALID,313,VALID,0,
2013-03-07, 01:03:04,VALID,1010.72,VALID,0,VALID,104,VALID,0,VALID,24.6684,VALID,313,VALID,0,
2013-03-07, 01:04:04,VALID,1010.71,VALID,0,VALID,104,VALID,0.112112,VALID,24.6666,VALID,313,VALID,0,
2013-03-07, 01:05:04,VALID,1010.73,VALID,0,VALID,104,VALID,0.112112,VALID,24.6471,VALID,313,VALID,0,
2013-03-07, 01:06:04,VALID,1010.7,VALID,0,VALID,104,VALID,0.112112,VALID,24.6471,VALID,313,VALID,0,
2013-03-07, 01:07:04,VALID,1010.69,VALID,0,VALID,104,VALID,0.112112,VALID,24.6276,VALID,313,VALID,0,
2013-03-07, 01:08:04,VALID,1010.68,VALID,0,VALID,104,VALID,0.112112,VALID,24.6276,VALID,313,VALID,0,
2013-03-07, 01:09:04,VALID,1010.66,VALID,0,VALID,104,VALID,0.112112,VALID,24.6062,VALID,313,VALID,0,
2013-03-07, 01:10:04,VALID,1010.65,VALID,0,VALID,104,VALID,0.112112,VALID,24.6276,VALID,313,VALID,0,
2013-03-07, 01:11:04,VALID,1010.64,VALID,0,VALID,104,VALID,0.112112,VALID,24.6081,VALID,314,VALID,0.316797,
2013-03-07, 01:12:04,VALID,1010.66,VALID,0,VALID,104,VALID,0.112112,VALID,24.5886,VALID,314,VALID,0.417969,
2013-03-07, 01:13:04,VALID,1010.65,VALID,0,VALID,104,VALID,0.112112,VALID,24.5691,VALID,313,VALID,0.317187,
2013-03-07, 01:14:04,VALID,1010.66,VALID,0,VALID,104,VALID,0.112112,VALID,24.5301,VALID,313,VALID,0.296875,
2013-03-07, 01:15:04,VALID,1010.64,VALID,0,VALID,104,VALID,0.112112,VALID,24.4893,VALID,313,VALID,0.132813,
2013-03-07, 01:16:04,VALID,1010.64,VALID,0,VALID,104,VALID,0,VALID,24.4911,VALID,314,VALID,0.0417969,
2013-03-07, 01:17:04,VALID,1010.63,VALID,0,VALID,104,VALID,0.112112,VALID,24.4717,VALID,313,VALID,0,
2013-03-07, 01:18:04,VALID,1010.6,VALID,0,VALID,104,VALID,0.112112,VALID,24.4717,VALID,313,VALID,0,
2013-03-07, 01:19:04,VALID,1010.61,VALID,0,VALID,104,VALID,0,VALID,24.454,VALID,313,VALID,0,
2013-03-07, 01:20:04,VALID,1010.6,VALID,0,VALID,104,VALID,0,VALID,24.4522,VALID,313,VALID,0,
2013-03-07, 01:21:04,VALID,1010.58,VALID,0,VALID,104,VALID,0,VALID,24.4735,VALID,314,VALID,0,
2013-03-07, 01:22:04,VALID,1010.56,VALID,0,VALID,104,VALID,0,VALID,24.4522,VALID,313,VALID,0,
2013-03-07, 01:23:04,VALID,1010.59,VALID,0,VALID,104,VALID,0,VALID,24.493,VALID,314,VALID,0,
2013-03-07, 01:24:04,VALID,1010.61,VALID,0,VALID,104,VALID,0,VALID,24.493,VALID,313,VALID,0,
2013-03-07, 01:25:04,VALID,1010.58,VALID,0,VALID,104,VALID,0,VALID,24.493,VALID,313,VALID,0,
2013-03-07, 01:26:04,VALID,1010.57,VALID,0,VALID,104,VALID,0,VALID,24.493,VALID,313,VALID,0,
2013-03-07, 01:27:04,VALID,1010.56,VALID,0,VALID,104,VALID,0,VALID,24.4735,VALID,313,VALID,0,
2013-03-07, 01:28:04,VALID,1010.55,VALID,0,VALID,104,VALID,0,VALID,24.454,VALID,313,VALID,0,
2013-03-07, 01:29:04,VALID,1010.55,VALID,0,VALID,104,VALID,0,VALID,24.4132,VALID,313,VALID,0,
2013-03-07, 01:30:04,VALID,1010.56,VALID,0,VALID,104,VALID,0.112112,VALID,24.4345,VALID,313,VALID,0,
2013-03-07, 01:31:04,VALID,1010.53,VALID,0,VALID,104,VALID,0,VALID,24.3742,VALID,313,VALID,0,
2013-03-07, 01:32:04,VALID,1010.55,VALID,0,VALID,104,VALID,0,VALID,24.3937,VALID,313,VALID,0,
2013-03-07, 01:33:04,VALID,1010.52,VALID,0,VALID,104,VALID,0,VALID,24.3547,VALID,313,VALID,0,
2013-03-07, 01:34:04,VALID,1010.56,VALID,0,VALID,104,VALID,0,VALID,24.3566,VALID,313,VALID,0,
2013-03-07, 01:35:04,VALID,1010.54,VALID,0,VALID,104,VALID,0,VALID,24.3371,VALID,313,VALID,0,
2013-03-07, 01:36:04,VALID,1010.49,VALID,0,VALID,104,VALID,0,VALID,24.3566,VALID,313,VALID,0,
2013-03-07, 01:37:04,VALID,1010.5,VALID,0,VALID,104,VALID,0,VALID,24.3158,VALID,313,VALID,0,
2013-03-07, 01:38:04,VALID,1010.47,VALID,0,VALID,104,VALID,0,VALID,24.3566,VALID,313,VALID,0,
2013-03-07, 01:39:04,VALID,1010.47,VALID,0,VALID,104,VALID,0,VALID,24.3566,VALID,313,VALID,0,
2013-03-07, 01:40:04,VALID,1010.44,VALID,0,VALID,104,VALID,0,VALID,24.3547,VALID,313,VALID,0,
2013-03-07, 01:41:04,VALID,1010.45,VALID,0,VALID,104,VALID,0,VALID,24.3742,VALID,313,VALID,0,
2013-03-07, 01:42:04,VALID,1010.41,VALID,0,VALID,104,VALID,0,VALID,24.3742,VALID,313,VALID,0,
2013-03-07, 01:43:04,VALID,1010.42,VALID,0,VALID,104,VALID,0.112112,VALID,24.3937,VALID,313,VALID,0.284766,
2013-03-07, 01:44:04,VALID,1010.37,VALID,0,VALID,104,VALID,0,VALID,24.3742,VALID,313,VALID,0.185547,
2013-03-07, 01:45:04,VALID,1010.35,VALID,0,VALID,104,VALID,0,VALID,24.3956,VALID,313,VALID,0.202344,
2013-03-07, 01:46:04,VALID,1010.34,VALID,0,VALID,104,VALID,0,VALID,24.3956,VALID,314,VALID,0.186328,
2013-03-07, 01:47:04,VALID,1010.3,VALID,0,VALID,104,VALID,0,VALID,24.3742,VALID,313,VALID,0.296094,
2013-03-07, 01:48:04,VALID,1010.27,VALID,0,VALID,104,VALID,0,VALID,24.3761,VALID,313,VALID,0.284375,
2013-03-07, 01:49:04,VALID,1010.27,VALID,0,VALID,104,VALID,0,VALID,24.3566,VALID,313,VALID,0.199219,
2013-03-07, 01:50:04,VALID,1010.24,VALID,0,VALID,104,VALID,0,VALID,24.3371,VALID,313,VALID,0.217578,
2013-03-07, 01:51:04,VALID,1010.27,VALID,0,VALID,104,VALID,0,VALID,24.2981,VALID,313,VALID,0.271484,
2013-03-07, 01:52:04,VALID,1010.28,VALID,0,VALID,104,VALID,0,VALID,24.2981,VALID,313,VALID,0.405859,
2013-03-07, 01:53:04,VALID,1010.27,VALID,0,VALID,104,VALID,0,VALID,24.2591,VALID,313,VALID,0.389453,
2013-03-07, 01:54:04,VALID,1010.26,VALID,0,VALID,104,VALID,0,VALID,24.2378,VALID,313,VALID,0.400781,
2013-03-07, 01:55:04,VALID,1010.24,VALID,0,VALID,104,VALID,0,VALID,24.2591,VALID,313,VALID,0.126953,
2013-03-07, 01:56:04,VALID,1010.25,VALID,0,VALID,104,VALID,0,VALID,24.2396,VALID,313,VALID,0,
2013-03-07, 01:57:04,VALID,1010.22,VALID,0,VALID,104,VALID,0,VALID,24.2396,VALID,313,VALID,0,
2013-03-07, 01:58:04,VALID,1010.22,VALID,0,VALID,104,VALID,0,VALID,24.1988,VALID,313,VALID,0,
2013-03-07, 01:59:04,VALID,1010.19,VALID,0,VALID,104,VALID,0,VALID,24.2202,VALID,313,VALID,0,
2013-03-07, 02:00:04,VALID,1010.22,VALID,0,VALID,104,VALID,0,VALID,24.1988,VALID,313,VALID,0.160547,
2013-03-07, 02:01:04,VALID,1010.2,VALID,0,VALID,104,VALID,0,VALID,24.2396,VALID,313,VALID,0,
2013-03-07, 02:02:04,VALID,1010.18,VALID,0,VALID,104,VALID,0,VALID,24.2202,VALID,313,VALID,0,
2013-03-07, 02:03:04,VALID,1010.17,VALID,0,VALID,104,VALID,0,VALID,24.2202,VALID,313,VALID,0,
2013-03-07, 02:04:04,VALID,1010.18,VALID,0,VALID,104,VALID,0,VALID,24.2007,VALID,313,VALID,0,
2013-03-07, 02:05:04,VALID,1010.19,VALID,0,VALID,104,VALID,0,VALID,24.1599,VALID,313,VALID,0,
2013-03-07, 02:06:04,VALID,1010.2,VALID,0,VALID,104,VALID,0,VALID,24.2007,VALID,313,VALID,0.130469,
2013-03-07, 02:07:04,VALID,1010.21,VALID,0,VALID,104,VALID,0.112112,VALID,24.1599,VALID,313,VALID,0,
2013-03-07, 02:08:04,VALID,1010.21,VALID,0,VALID,104,VALID,0.112112,VALID,24.1793,VALID,313,VALID,0.134375,
2013-03-07, 02:09:04,VALID,1010.22,VALID,0,VALID,104,VALID,0,VALID,24.1599,VALID,313,VALID,0.221875,
2013-03-07, 02:10:04,VALID,1010.18,VALID,0,VALID,104,VALID,0,VALID,24.1617,VALID,313,VALID,0.192188,
2013-03-07, 02:11:04,VALID,1010.2,VALID,0,VALID,104,VALID,0,VALID,24.1617,VALID,313,VALID,0.26875,
2013-03-07, 02:12:04,VALID,1010.17,VALID,0,VALID,104,VALID,0,VALID,24.1422,VALID,313,VALID,0.241406,
2013-03-07, 02:13:04,VALID,1010.15,VALID,0,VALID,104,VALID,0,VALID,24.1227,VALID,313,VALID,0.211328,
2013-03-07, 02:14:04,VALID,1010.16,VALID,0,VALID,104,VALID,0,VALID,24.1032,VALID,313,VALID,0.271094,
2013-03-07, 02:15:04,VALID,1010.13,VALID,0,VALID,104,VALID,0,VALID,24.1032,VALID,313,VALID,0.0867188,
2013-03-07, 02:16:04,VALID,1010.12,VALID,0,VALID,104,VALID,0.112112,VALID,24.0429,VALID,313,VALID,0.203516,
2013-03-07, 02:17:04,VALID,1010.1,VALID,0,VALID,104,VALID,0,VALID,24.0448,VALID,313,VALID,0.216406,
2013-03-07, 02:18:04,VALID,1010.11,VALID,0,VALID,104,VALID,0,VALID,24.0448,VALID,313,VALID,0,
2013-03-07, 02:19:04,VALID,1010.09,VALID,0,VALID,104,VALID,0,VALID,24.0429,VALID,313,VALID,0.294922,
2013-03-07, 02:20:04,VALID,1010.07,VALID,0,VALID,104,VALID,0,VALID,24.0624,VALID,313,VALID,0.283984,
2013-03-07, 02:21:04,VALID,1010.07,VALID,0,VALID,104,VALID,0,VALID,24.0837,VALID,313,VALID,0.266797,
2013-03-07, 02:22:04,VALID,1010.08,VALID,0,VALID,104,VALID,0,VALID,24.0429,VALID,314,VALID,0.187891,
2013-03-07, 02:23:04,VALID,1010.1,VALID,0,VALID,104,VALID,0,VALID,24.0643,VALID,313,VALID,0.0121094,
2013-03-07, 02:24:04,VALID,1010.08,VALID,0,VALID,104,VALID,0,VALID,24.0643,VALID,313,VALID,0,
2013-03-07, 02:25:04,VALID,1010.06,VALID,0,VALID,104,VALID,0.112112,VALID,24.0235,VALID,314,VALID,0,
2013-03-07, 02:26:04,VALID,1010.08,VALID,0,VALID,104,VALID,0,VALID,24.0235,VALID,313,VALID,0,
2013-03-07, 02:27:04,VALID,1010.09,VALID,0,VALID,104,VALID,0,VALID,23.9845,VALID,313,VALID,0,
2013-03-07, 02:28:04,VALID,1010.05,VALID,0,VALID,104,VALID,0,VALID,23.965,VALID,313,VALID,0,
2013-03-07, 02:29:04,VALID,1010.09,VALID,0,VALID,104,VALID,0.112112,VALID,23.965,VALID,313,VALID,0,
2013-03-07, 02:30:04,VALID,1010.12,VALID,0,VALID,104,VALID,0,VALID,23.9455,VALID,313,VALID,0,
2013-03-07, 02:31:04,VALID,1010.08,VALID,0,VALID,104,VALID,0.112112,VALID,23.9455,VALID,313,VALID,0,
2013-03-07, 02:32:04,VALID,1010.07,VALID,0,VALID,104,VALID,0.112112,VALID,23.9278,VALID,314,VALID,0,
2013-03-07, 02:33:04,VALID,1010.08,VALID,0,VALID,104,VALID,0,VALID,23.9278,VALID,314,VALID,0,
2013-03-07, 02:34:04,VALID,1010.07,VALID,0,VALID,104,VALID,0,VALID,23.8676,VALID,313,VALID,0,
2013-03-07, 02:35:04,VALID,1010.07,VALID,0,VALID,104,VALID,0,VALID,23.8889,VALID,313,VALID,0,
2013-03-07, 02:36:04,VALID,1010.07,VALID,0,VALID,104,VALID,0,VALID,23.8694,VALID,313,VALID,0,
2013-03-07, 02:37:04,VALID,1010.03,VALID,0,VALID,104,VALID,0,VALID,23.8286,VALID,313,VALID,0,
2013-03-07, 02:38:04,VALID,1010.05,VALID,0,VALID,104,VALID,0,VALID,23.8694,VALID,313,VALID,0,
2013-03-07, 02:39:04,VALID,1010.08,VALID,0,VALID,104,VALID,0.112112,VALID,23.8481,VALID,313,VALID,0,
2013-03-07, 02:40:04,VALID,1010.08,VALID,0,VALID,104,VALID,0,VALID,23.8694,VALID,313,VALID,0,
2013-03-07, 02:41:04,VALID,1010.05,VALID,0,VALID,104,VALID,0.112112,VALID,23.8499,VALID,314,VALID,0,
2013-03-07, 02:42:04,VALID,1010.04,VALID,0,VALID,104,VALID,0.112112,VALID,23.8286,VALID,314,VALID,0.0117188,
2013-03-07, 02:43:04,VALID,1010.04,VALID,0,VALID,104,VALID,0,VALID,23.8091,VALID,312,VALID,0.185937,
2013-03-07, 02:44:04,VALID,1010.05,VALID,0,VALID,104,VALID,0,VALID,23.8304,VALID,313,VALID,0.0792969,
2013-03-07, 02:45:04,VALID,1010.05,VALID,0,VALID,104,VALID,0,VALID,23.7896,VALID,314,VALID,0.381641,
2013-03-07, 02:46:04,VALID,1010.03,VALID,0,VALID,104,VALID,0,VALID,23.7914,VALID,313,VALID,0.225391,
2013-03-07, 02:47:04,VALID,1010.05,VALID,0,VALID,104,VALID,0.112112,VALID,23.7701,VALID,314,VALID,0.309766,
2013-03-07, 02:48:04,VALID,1010.04,VALID,0,VALID,104,VALID,0,VALID,23.7701,VALID,313,VALID,0.332422,
2013-03-07, 02:49:04,VALID,1010.07,VALID,0,VALID,104,VALID,0,VALID,23.7312,VALID,313,VALID,0.226953,
2013-03-07, 02:50:04,VALID,1010.07,VALID,0,VALID,104,VALID,0,VALID,23.6922,VALID,313,VALID,0.264453,
2013-03-07, 02:51:04,VALID,1010.08,VALID,0,VALID,104,VALID,0,VALID,23.694,VALID,312,VALID,0.141016,
2013-03-07, 02:52:04,VALID,1010.1,VALID,0,VALID,104,VALID,0,VALID,23.6745,VALID,314,VALID,0.0652344,
2013-03-07, 02:53:04,VALID,1010.13,VALID,0,VALID,104,VALID,0,VALID,23.6338,VALID,313,VALID,0,
2013-03-07, 02:54:04,VALID,1010.1,VALID,0,VALID,104,VALID,0.112112,VALID,23.6143,VALID,313,VALID,0,
2013-03-07, 02:55:04,VALID,1010.1,VALID,0,VALID,104,VALID,0.112112,VALID,23.6356,VALID,313,VALID,0,
2013-03-07, 02:56:04,VALID,1010.11,VALID,0,VALID,104,VALID,0.112112,VALID,23.6143,VALID,313,VALID,0,
2013-03-07, 02:57:04,VALID,1010.13,VALID,0,VALID,104,VALID,0.112112,VALID,23.5948,VALID,313,VALID,0.273438,
2013-03-07, 02:58:04,VALID,1010.12,VALID,0,VALID,104,VALID,0,VALID,23.6356,VALID,313,VALID,0.276953,
2013-03-07, 02:59:04,VALID,1010.12,VALID,0,VALID,104,VALID,0,VALID,23.655,VALID,313,VALID,0.405078,
2013-03-07, 03:00:04,VALID,1010.13,VALID,0,VALID,104,VALID,0,VALID,23.6745,VALID,313,VALID,0.238281,
2013-03-07, 03:01:04,VALID,1010.12,VALID,0,VALID,104,VALID,0,VALID,23.6532,VALID,313,VALID,0,
2013-03-07, 03:02:04,VALID,1010.14,VALID,0,VALID,104,VALID,0,VALID,23.6532,VALID,313,VALID,0,
2013-03-07, 03:03:04,VALID,1010.15,VALID,0,VALID,104,VALID,0,VALID,23.6532,VALID,313,VALID,0,
2013-03-07, 03:04:04,VALID,1010.15,VALID,0,VALID,104,VALID,0,VALID,23.6532,VALID,313,VALID,0,
2013-03-07, 03:05:04,VALID,1010.14,VALID,0,VALID,104,VALID,0,VALID,23.6532,VALID,313,VALID,0,
2013-03-07, 03:06:04,VALID,1010.15,VALID,0,VALID,104,VALID,0,VALID,23.6745,VALID,313,VALID,0,
2013-03-07, 03:07:04,VALID,1010.13,VALID,0,VALID,104,VALID,0,VALID,23.694,VALID,313,VALID,0,
2013-03-07, 03:08:04,VALID,1010.12,VALID,0,VALID,104,VALID,0,VALID,23.694,VALID,313,VALID,0,
2013-03-07, 03:09:04,VALID,1010.09,VALID,0,VALID,104,VALID,0,VALID,23.7312,VALID,313,VALID,0,
2013-03-07, 03:10:04,VALID,1010.08,VALID,0,VALID,104,VALID,0,VALID,23.772,VALID,313,VALID,0,
2013-03-07, 03:11:04,VALID,1010.05,VALID,0,VALID,104,VALID,0,VALID,23.772,VALID,313,VALID,0,
2013-03-07, 03:12:04,VALID,1010.08,VALID,0,VALID,104,VALID,0,VALID,23.772,VALID,313,VALID,0,
2013-03-07, 03:13:04,VALID,1010.06,VALID,0,VALID,104,VALID,0,VALID,23.7507,VALID,313,VALID,0,
2013-03-07, 03:14:04,VALID,1010.09,VALID,0,VALID,104,VALID,0,VALID,23.7525,VALID,313,VALID,0,
2013-03-07, 03:15:04,VALID,1010.09,VALID,0,VALID,104,VALID,0,VALID,23.6922,VALID,313,VALID,0,
2013-03-07, 03:16:04,VALID,1010.09,VALID,0,VALID,104,VALID,0,VALID,23.6922,VALID,313,VALID,0,
2013-03-07, 03:17:04,VALID,1010.08,VALID,0,VALID,104,VALID,0,VALID,23.7117,VALID,314,VALID,0,
2013-03-07, 03:18:04,VALID,1010.09,VALID,0,VALID,104,VALID,0.112112,VALID,23.6922,VALID,313,VALID,0,
2013-03-07, 03:19:04,VALID,1010.09,VALID,0,VALID,104,VALID,0,VALID,23.7525,VALID,313,VALID,0,
2013-03-07, 03:20:04,VALID,1010.08,VALID,0,VALID,104,VALID,0,VALID,23.733,VALID,313,VALID,0,
2013-03-07, 03:21:04,VALID,1010.08,VALID,0,VALID,104,VALID,0,VALID,23.7312,VALID,314,VALID,0,
2013-03-07, 03:22:04,VALID,1010.08,VALID,0,VALID,104,VALID,0.112112,VALID,23.772,VALID,313,VALID,0,
2013-03-07, 03:23:04,VALID,1010.08,VALID,0,VALID,104,VALID,0,VALID,23.7896,VALID,313,VALID,0,
2013-03-07, 03:24:04,VALID,1010.1,VALID,0,VALID,104,VALID,0,VALID,23.8091,VALID,313,VALID,0,
2013-03-07, 03:25:04,VALID,1010.09,VALID,0,VALID,104,VALID,0,VALID,23.8304,VALID,314,VALID,0,
2013-03-07, 03:26:04,VALID,1010.09,VALID,0,VALID,104,VALID,0,VALID,23.8286,VALID,313,VALID,0,
2013-03-07, 03:27:04,VALID,1010.09,VALID,0,VALID,104,VALID,0,VALID,23.8091,VALID,313,VALID,0,
2013-03-07, 03:28:04,VALID,1010.1,VALID,0,VALID,104,VALID,0,VALID,23.8286,VALID,313,VALID,0.0957031,
2013-03-07, 03:29:04,VALID,1010.03,VALID,0,VALID,104,VALID,0,VALID,23.8499,VALID,313,VALID,0.228125,
2013-03-07, 03:30:04,VALID,1010.06,VALID,0,VALID,104,VALID,0,VALID,23.8304,VALID,313,VALID,0.170703,
2013-03-07, 03:31:04,VALID,1010.05,VALID,0,VALID,104,VALID,0,VALID,23.8091,VALID,313,VALID,0.119922,
2013-03-07, 03:32:04,VALID,1010.04,VALID,0,VALID,104,VALID,0,VALID,23.8091,VALID,313,VALID,0,
2013-03-07, 03:33:04,VALID,1010.07,VALID,0,VALID,104,VALID,0,VALID,23.8304,VALID,313,VALID,0,
2013-03-07, 03:34:04,VALID,1010.1,VALID,0,VALID,104,VALID,0,VALID,23.8109,VALID,313,VALID,0,
2013-03-07, 03:35:04,VALID,1010.09,VALID,0,VALID,104,VALID,0,VALID,23.8091,VALID,313,VALID,0,
2013-03-07, 03:36:04,VALID,1010.12,VALID,0,VALID,104,VALID,0,VALID,23.8304,VALID,313,VALID,0,
2013-03-07, 03:37:04,VALID,1010.1,VALID,0,VALID,104,VALID,0,VALID,23.8286,VALID,313,VALID,0,
2013-03-07, 03:38:04,VALID,1010.09,VALID,0,VALID,104,VALID,0,VALID,23.8304,VALID,313,VALID,0,
2013-03-07, 03:39:04,VALID,1010.09,VALID,0,VALID,104,VALID,0,VALID,23.8304,VALID,313,VALID,0,
2013-03-07, 03:40:04,VALID,1010.11,VALID,0,VALID,104,VALID,0.112112,VALID,23.8286,VALID,313,VALID,0,
2013-03-07, 03:41:04,VALID,1010.12,VALID,0,VALID,104,VALID,0,VALID,23.8304,VALID,313,VALID,0,
2013-03-07, 03:42:04,VALID,1010.11,VALID,0,VALID,104,VALID,0,VALID,23.8286,VALID,313,VALID,0,
2013-03-07, 03:43:04,VALID,1010.11,VALID,0,VALID,104,VALID,0,VALID,23.8109,VALID,313,VALID,0,
2013-03-07, 03:44:04,VALID,1010.1,VALID,0,VALID,104,VALID,0,VALID,23.8109,VALID,313,VALID,0.188672,
2013-03-07, 03:45:04,VALID,1010.09,VALID,0,VALID,104,VALID,0,VALID,23.8091,VALID,313,VALID,0.105078,
2013-03-07, 03:46:04,VALID,1010.09,VALID,0,VALID,104,VALID,0,VALID,23.7914,VALID,313,VALID,0.173438,
2013-03-07, 03:47:04,VALID,1010.12,VALID,0,VALID,104,VALID,0,VALID,23.7701,VALID,313,VALID,0.0554687,
2013-03-07, 03:48:04,VALID,1010.09,VALID,0,VALID,104,VALID,0,VALID,23.7896,VALID,313,VALID,0.0824219,
2013-03-07, 03:49:04,VALID,1010.1,VALID,0,VALID,104,VALID,0,VALID,23.8091,VALID,313,VALID,0.215625,
2013-03-07, 03:50:04,VALID,1010.08,VALID,0,VALID,104,VALID,0,VALID,23.8091,VALID,313,VALID,0.222656,
2013-03-07, 03:51:04,VALID,1010.09,VALID,0,VALID,104,VALID,0,VALID,23.8091,VALID,313,VALID,0.258594,
2013-03-07, 03:52:04,VALID,1010.04,VALID,0,VALID,104,VALID,0,VALID,23.8304,VALID,313,VALID,0.278125,
2013-03-07, 03:53:04,VALID,1010.03,VALID,0,VALID,104,VALID,0,VALID,23.8091,VALID,313,VALID,0.19375,
2013-03-07, 03:54:04,VALID,1010,VALID,0,VALID,104,VALID,0,VALID,23.8286,VALID,313,VALID,0.106641,
2013-03-07, 03:55:04,VALID,1009.98,VALID,0,VALID,104,VALID,0,VALID,23.8091,VALID,313,VALID,0,
2013-03-07, 03:56:04,VALID,1009.99,VALID,0,VALID,104,VALID,0,VALID,23.8304,VALID,313,VALID,0,